星链-6035 (STARLINK-6035 )

导读

STARLINK-6035是美国太空探索技术公司(SpaceX)星链互联网卫星星座的一员,于2023年4月27日在美国发射升空。它属于星链项目第二代低轨卫星,主要用于为全球提供高速低延迟的宽带互联网服务,补全增强星链星座的全球覆盖能力,推动天基互联网网络的建设与服务扩容。

Basic Information
目录编号:
56323
目录名称:
STARLINK-6035
国际标识:
2023-058G
轨道中心:
EARTH
卫星名称:
星链-6035
卫星全名:
星链-6035 (STARLINK-6035 )
卫星状态:
在轨 (已飞行1234 天)
发射日期:
2023-04-27 UTC
国别 :
美国 (US)
星等 :
--
This satellite is enrolled in the Space Conjunction Data Service (SCDS) and the current flight risk assessment level is: No High Risk
Orbit Information
数据来源 国际轨道数据 AOE轨道数据
星历时间 2026-09-12T16:00:02+0800
8小时前
查看轨道信息
2026-09-06T07:00:00+0800
6天前
查看轨道信息
半长轴 6916.722km 6927.62km
偏心率 0.0001165 0.0001852
轨道倾角 97.283° 97.284°
近地点辐角 111.845° 83.834°
升交点赤经 249.603° 243.591°
平近点角 151.870° 185.254°
近地点 537.779km 548.2km
远地点 539.391km 550.766km
周期 95.414分钟 95.639分钟
每日圈数 15.092192 15.056593
Detailed Information
固有亮度:
5
最大亮度:
2.5
卫星平台:
Starlink v1.5
覆盖范围:
全球
运营商:
太空探索技术公司
运营商所在国:
美国
制造商(研发单位):
太空探索技术公司
制造商所在国:
美国
使用方式:
暂无
Satellite Introduction
星链(Starlink)计划是由太空探索技术公司(SpaceX)提出的一个巨型低轨卫星互联网星座项目,计划在2019年至2024年间在太空搭建由约1.2万颗卫星组成的“星链”网络,其中1584颗将部署在地球上空550千米处的近地轨道,并从2020年开始工作。该卫星仍在工作。
2D Orbit Map
3D Orbit Map
Orbit Altitude Analysis Chart
Orbit Inclination Analysis Chart
Orbit Comprehensive Analysis Chart
View Comprehensive Chart
Conjunction Data List
Event ID Objects TCA Miss Dist (km) Collision Risk Probability Collision Risk Index (CRI) Action
CDM_260914-115805-632306-630221
2026-09-14T
11:58:03+0000
2.874 km
极远距离
1.333482E-6 低风险 0.37
CDM_260913-132703-331505-632321
2026-09-13T
13:27:14+0000
2.973 km
极远距离
6.75351E-7 极低风险 0.32
Miss Distance Evolution Trend with All Objects
Collision Probability Evolution Trend with All Objects